• In Germany
  • List of Countries
  • For 7 days
  • Water Temperature
  • Satellite Maps
  • Weather Map
  • Weather Widgets
  • user-avatar
    Login

    Hourly Weather Barra

    Today, 21 August, Monday

    Time Temperature Precipitation Wind Pressure Humidity
    00:00 +16°C° 0 mm 3 mps 752 mmHg 82%
    01:00 +16°C° 0 mm 3 mps 752 mmHg 84%
    02:00 +16°C° 0 mm 3 mps 751 mmHg 83%
    03:00 +16°C° 0 mm 3 mps 751 mmHg 83%
    04:00 +16°C° 0 mm 3 mps 751 mmHg 86%
    05:00 +16°C° 0 mm 3 mps 751 mmHg 85%
    06:00 +16°C° 0 mm 3 mps 751 mmHg 84%
    07:00 +16°C° 0 mm 3 mps 752 mmHg 83%
    08:00 +18°C° 0 mm 3 mps 752 mmHg 72%
    09:00 +21°C° 0 mm 3 mps 752 mmHg 61%
    10:00 +24°C° 0 mm 3 mps 752 mmHg 49%
    11:00 +25°C° 0 mm 3 mps 752 mmHg 46%
    12:00 +26°C° 0 mm 3 mps 752 mmHg 44%
    13:00 +26°C° 0 mm 3 mps 751 mmHg 42%
    14:00 +26°C° 0 mm 3 mps 751 mmHg 44%
    15:00 +26°C° 0 mm 3 mps 751 mmHg 45%
    16:00 +25°C° 0 mm 2 mps 750 mmHg 48%
    17:00 +23°C° 0 mm 2 mps 750 mmHg 56%
    18:00 +20°C° 0 mm 2 mps 751 mmHg 64%
    19:00 +19°C° 0 mm 1 mps 751 mmHg 72%
    20:00 +18°C° 0 mm 1 mps 751 mmHg 75%
    21:00 +18°C° 0 mm 1 mps 752 mmHg 79%
    22:00 +16°C° 0 mm 1 mps 752 mmHg 82%
    23:00 +16°C° 0 mm 1 mps 752 mmHg 85%

    Tomorrow, 22 August, Tuesday

    Time Temperature Precipitation Wind Pressure Humidity
    00:00 +16°C° 0 mm 1 mps 752 mmHg 87%
    01:00 +16°C° 0 mm 1 mps 752 mmHg 89%
    02:00 +15°C° 0 mm 1 mps 752 mmHg 91%
    03:00 +15°C° 0 mm 1 mps 752 mmHg 92%
    04:00 +15°C° 0 mm 1 mps 751 mmHg 93%
    05:00 +15°C° 0 mm 1 mps 752 mmHg 93%
    06:00 +16°C° 0 mm 1 mps 752 mmHg 93%
    07:00 +16°C° 0 mm 1 mps 752 mmHg 93%
    08:00 +20°C° 0 mm 1 mps 752 mmHg 81%
    09:00 +23°C° 0 mm 1 mps 752 mmHg 69%
    10:00 +27°C° 0 mm 2 mps 752 mmHg 56%
    11:00 +27°C° 0 mm 2 mps 752 mmHg 53%
    12:00 +28°C° 0 mm 2 mps 751 mmHg 49%
    13:00 +29°C° 0 mm 2 mps 751 mmHg 46%
    14:00 +29°C° 0 mm 2 mps 750 mmHg 48%
    15:00 +28°C° 0 mm 2 mps 750 mmHg 50%
    16:00 +28°C° 0 mm 2 mps 750 mmHg 52%
    17:00 +25°C° 0 mm 2 mps 750 mmHg 63%
    18:00 +23°C° 0 mm 2 mps 751 mmHg 73%
    19:00 +20°C° 0 mm 2 mps 751 mmHg 83%
    20:00 +19°C° 0 mm 2 mps 752 mmHg 85%
    21:00 +19°C° 0 mm 2 mps 752 mmHg 88%
    22:00 +18°C° 0 mm 2 mps 752 mmHg 91%
    23:00 +18°C° 0 mm 2 mps 752 mmHg 91%

    Day after tomorrow, 23 August, Wednesday

    Time Temperature Precipitation Wind Pressure Humidity
    00:00 +18°C° 0 mm 2 mps 752 mmHg 92%
    01:00 +18°C° 0 mm 2 mps 752 mmHg 92%
    02:00 +18°C° 0 mm 2 mps 752 mmHg 93%
    03:00 +19°C° 0 mm 1 mps 752 mmHg 93%
    04:00 +19°C° 0 mm 1 mps 752 mmHg 94%
    05:00 +19°C° 0 mm 1 mps 752 mmHg 95%
    06:00 +18°C° 0 mm 2 mps 752 mmHg 95%
    07:00 +18°C° 0 mm 2 mps 753 mmHg 96%
    08:00 +20°C° 0 mm 2 mps 753 mmHg 85%
    09:00 +24°C° 0 mm 2 mps 753 mmHg 75%
    10:00 +26°C° 0 mm 2 mps 753 mmHg 64%
    11:00 +27°C° 0 mm 2 mps 752 mmHg 59%
    12:00 +28°C° 0 mm 3 mps 752 mmHg 54%
    13:00 +29°C° 0 mm 3 mps 751 mmHg 49%
    14:00 +29°C° 0 mm 3 mps 751 mmHg 50%
    15:00 +28°C° 0 mm 3 mps 750 mmHg 51%
    16:00 +28°C° 0 mm 3 mps 750 mmHg 51%
    17:00 +25°C° 0 mm 2 mps 750 mmHg 62%
    18:00 +23°C° 0 mm 2 mps 751 mmHg 72%
    19:00 +20°C° 0 mm 2 mps 751 mmHg 83%
    20:00 +19°C° 0 mm 2 mps 751 mmHg 86%
    21:00 +19°C° 0 mm 2 mps 752 mmHg 90%
    22:00 +18°C° 0 mm 2 mps 752 mmHg 93%
    23:00 +18°C° 0 mm 2 mps 752 mmHg 94%

    24 August, Thursday

    Time Temperature Precipitation Wind Pressure Humidity
    00:00 +18°C° 0 mm 2 mps 751 mmHg 95%
    01:00 +18°C° 0 mm 2 mps 751 mmHg 96%
    02:00 +19°C° 0 mm 1 mps 751 mmHg 96%
    03:00 +19°C° 0 mm 1 mps 750 mmHg 96%
    04:00 +19°C° 0 mm 1 mps 750 mmHg 97%
    05:00 +19°C° 0 mm 1 mps 750 mmHg 97%
    06:00 +19°C° 0 mm 1 mps 751 mmHg 97%
    07:00 +19°C° 0 mm 1 mps 751 mmHg 97%
    08:00 +22°C° 0 mm 1 mps 751 mmHg 83%
    09:00 +24°C° 0 mm 1 mps 751 mmHg 69%
    10:00 +27°C° 0 mm 2 mps 751 mmHg 55%
    11:00 +28°C° 0 mm 2 mps 751 mmHg 51%
    12:00 +29°C° 0 mm 2 mps 750 mmHg 47%
    13:00 +30°C° 0 mm 2 mps 749 mmHg 44%
    14:00 +30°C° 0 mm 2 mps 749 mmHg 45%
    15:00 +29°C° 0 mm 2 mps 748 mmHg 47%
    16:00 +29°C° 0 mm 2 mps 748 mmHg 49%
    17:00 +26°C° 0 mm 2 mps 748 mmHg 60%
    18:00 +24°C° 0 mm 2 mps 749 mmHg 71%
    19:00 +21°C° 0 mm 2 mps 749 mmHg 82%
    20:00 +21°C° 0 mm 1 mps 749 mmHg 85%
    21:00 +20°C° 0 mm 1 mps 750 mmHg 88%
    22:00 +20°C° 0 mm 1 mps 750 mmHg 92%
    23:00 +20°C° 0 mm 1 mps 750 mmHg 92%

    25 August, Friday

    Time Temperature Precipitation Wind Pressure Humidity
    00:00 +19°C° 0 mm 1 mps 750 mmHg 93%
    01:00 +19°C° 0 mm 1 mps 750 mmHg 93%
    02:00 +19°C° 0 mm 1 mps 749 mmHg 93%
    03:00 +19°C° 0 mm 1 mps 749 mmHg 92%
    04:00 +17°C° 0 mm 2 mps 749 mmHg 91%
    05:00 +17°C° 0 mm 2 mps 750 mmHg 88%
    06:00 +17°C° 0 mm 2 mps 750 mmHg 84%
    07:00 +17°C° 0 mm 2 mps 750 mmHg 80%
    08:00 +21°C° 0 mm 2 mps 751 mmHg 69%
    09:00 +25°C° 0 mm 2 mps 751 mmHg 57%
    10:00 +28°C° 0 mm 2 mps 751 mmHg 46%
    11:00 +29°C° 0 mm 2 mps 750 mmHg 43%
    12:00 +30°C° 0 mm 3 mps 750 mmHg 40%
    13:00 +31°C° 0 mm 3 mps 749 mmHg 38%
    14:00 +30°C° 0 mm 3 mps 749 mmHg 40%
    15:00 +30°C° 0 mm 3 mps 748 mmHg 43%
    16:00 +29°C° 0 mm 3 mps 748 mmHg 45%
    17:00 +27°C° 0 mm 3 mps 749 mmHg 56%
    18:00 +24°C° 0 mm 3 mps 749 mmHg 67%
    19:00 +21°C° 0 mm 2 mps 750 mmHg 78%
    20:00 +20°C° 0 mm 2 mps 750 mmHg 82%
    21:00 +20°C° 0 mm 2 mps 751 mmHg 87%
    22:00 +20°C° 0 mm 1 mps 751 mmHg 92%
    23:00 +19°C° 0.1 mm 2 mps 751 mmHg 93%

    26 August, Saturday

    Time Temperature Precipitation Wind Pressure Humidity
    00:00 +19°C° 0.1 mm 2 mps 751 mmHg 94%
    01:00 +19°C° 0.1 mm 2 mps 750 mmHg 95%
    02:00 +19°C° 0.2 mm 2 mps 750 mmHg 95%
    03:00 +19°C° 0.2 mm 2 mps 750 mmHg 96%
    04:00 +18°C° 0.2 mm 3 mps 750 mmHg 97%
    05:00 +19°C° 0.2 mm 3 mps 750 mmHg 96%
    06:00 +19°C° 0.2 mm 3 mps 751 mmHg 95%
    07:00 +19°C° 0.2 mm 4 mps 751 mmHg 95%
    08:00 +20°C° 0.2 mm 4 mps 752 mmHg 90%
    09:00 +21°C° 0.2 mm 5 mps 752 mmHg 85%
    10:00 +22°C° 0.2 mm 5 mps 752 mmHg 80%
    11:00 +23°C° 0.2 mm 5 mps 752 mmHg 76%
    12:00 +25°C° 0.2 mm 5 mps 751 mmHg 73%
    13:00 +25°C° 0.2 mm 5 mps 751 mmHg 69%
    14:00 +25°C° 0.1 mm 5 mps 750 mmHg 68%
    15:00 +25°C° 0.1 mm 5 mps 750 mmHg 67%
    16:00 +25°C° 0.1 mm 5 mps 750 mmHg 66%
    17:00 +23°C° 0 mm 4 mps 751 mmHg 72%
    18:00 +21°C° 0 mm 3 mps 751 mmHg 78%
    19:00 +20°C° 0 mm 3 mps 752 mmHg 84%
    20:00 +19°C° 0 mm 3 mps 752 mmHg 86%
    21:00 +19°C° 0 mm 3 mps 752 mmHg 88%
    22:00 +18°C° 0 mm 3 mps 752 mmHg 90%
    23:00 +18°C° 0 mm 3 mps 752 mmHg 91%
    Show more